EN

Hourly Weather Burtasy

Today, 15 April, Thursday

Time Temperature Precipitation Wind Pressure Humidity
00:00 +10°C° 0 mm 2 mps 760 mmHg 85%
01:00 +10°C° 0 mm 2 mps 759 mmHg 86%
02:00 +9°C° 0 mm 2 mps 759 mmHg 87%
03:00 +9°C° 0 mm 2 mps 759 mmHg 88%
04:00 +9°C° 0 mm 2 mps 759 mmHg 88%
05:00 +9°C° 0 mm 2 mps 759 mmHg 89%
06:00 +9°C° 0 mm 2 mps 759 mmHg 89%
07:00 +10°C° 0 mm 2 mps 758 mmHg 82%
08:00 +13°C° 0 mm 2 mps 758 mmHg 75%
09:00 +14°C° 0 mm 3 mps 758 mmHg 67%
10:00 +16°C° 0 mm 3 mps 758 mmHg 62%
11:00 +17°C° 0 mm 3 mps 758 mmHg 56%
12:00 +18°C° 0 mm 2 mps 757 mmHg 51%
13:00 +18°C° 0 mm 2 mps 757 mmHg 48%
14:00 +19°C° 0 mm 2 mps 757 mmHg 46%
15:00 +19°C° 0 mm 2 mps 757 mmHg 43%
16:00 +18°C° 0 mm 2 mps 757 mmHg 47%
17:00 +19°C° 0 mm 1 mps 756 mmHg 51%
18:00 +18°C° 0 mm 1 mps 756 mmHg 55%
19:00 +16°C° 0 mm 1 mps 757 mmHg 58%
20:00 +14°C° 0 mm 0 mps 757 mmHg 61%
21:00 +13°C° 0 mm 0 mps 757 mmHg 63%
22:00 +13°C° 0 mm 1 mps 757 mmHg 66%
23:00 +12°C° 0 mm 2 mps 757 mmHg 70%

Tomorrow, 16 April, Friday

Time Temperature Precipitation Wind Pressure Humidity
00:00 +12°C° 0 mm 2 mps 757 mmHg 73%
01:00 +10°C° 0 mm 3 mps 757 mmHg 80%
02:00 +8°C° 0 mm 4 mps 758 mmHg 88%
03:00 +7°C° 0 mm 5 mps 758 mmHg 96%
04:00 +7°C° 0 mm 5 mps 758 mmHg 95%
05:00 +7°C° 0 mm 5 mps 759 mmHg 93%
06:00 +8°C° 0 mm 5 mps 759 mmHg 91%
07:00 +8°C° 0 mm 5 mps 759 mmHg 89%
08:00 +8°C° 0 mm 6 mps 759 mmHg 86%
09:00 +8°C° 0 mm 6 mps 760 mmHg 83%
10:00 +9°C° 0 mm 6 mps 760 mmHg 79%
11:00 +9°C° 0 mm 6 mps 760 mmHg 74%
12:00 +10°C° 0 mm 6 mps 760 mmHg 70%
13:00 +11°C° 0 mm 6 mps 760 mmHg 68%
14:00 +11°C° 0 mm 6 mps 760 mmHg 67%
15:00 +11°C° 0 mm 6 mps 760 mmHg 65%
16:00 +10°C° 0 mm 6 mps 760 mmHg 66%
17:00 +10°C° 0 mm 5 mps 760 mmHg 66%
18:00 +9°C° 0 mm 5 mps 761 mmHg 67%
19:00 +8°C° 0 mm 5 mps 761 mmHg 67%
20:00 +7°C° 0 mm 5 mps 761 mmHg 68%
21:00 +6°C° 0 mm 4 mps 761 mmHg 68%
22:00 +6°C° 0 mm 5 mps 761 mmHg 69%
23:00 +5°C° 0 mm 5 mps 761 mmHg 70%

Day after tomorrow, 17 April, Saturday

Time Temperature Precipitation Wind Pressure Humidity
00:00 +5°C° 0 mm 5 mps 761 mmHg 71%
01:00 +5°C° 0 mm 5 mps 762 mmHg 71%
02:00 +3°C° 0 mm 5 mps 762 mmHg 71%
03:00 +3°C° 0 mm 5 mps 762 mmHg 71%
04:00 +4°C° 0 mm 4 mps 762 mmHg 71%
05:00 +3°C° 0 mm 4 mps 762 mmHg 71%
06:00 +3°C° 0 mm 4 mps 763 mmHg 71%
07:00 +3°C° 0 mm 5 mps 763 mmHg 65%
08:00 +6°C° 0 mm 5 mps 763 mmHg 59%
09:00 +7°C° 0 mm 6 mps 763 mmHg 54%
10:00 +8°C° 0 mm 6 mps 763 mmHg 50%
11:00 +9°C° 0 mm 5 mps 763 mmHg 46%
12:00 +10°C° 0 mm 5 mps 763 mmHg 43%
13:00 +10°C° 0 mm 5 mps 762 mmHg 41%
14:00 +10°C° 0 mm 5 mps 762 mmHg 38%
15:00 +12°C° 0 mm 5 mps 762 mmHg 36%
16:00 +11°C° 0 mm 4 mps 762 mmHg 40%
17:00 +10°C° 0 mm 3 mps 762 mmHg 45%
18:00 +9°C° 0 mm 3 mps 762 mmHg 49%
19:00 +8°C° 0 mm 3 mps 762 mmHg 54%
20:00 +7°C° 0 mm 3 mps 762 mmHg 58%
21:00 +5°C° 0 mm 3 mps 762 mmHg 62%
22:00 +4°C° 0 mm 3 mps 762 mmHg 65%
23:00 +4°C° 0 mm 3 mps 762 mmHg 67%

18 April, Sunday

Time Temperature Precipitation Wind Pressure Humidity
00:00 +3°C° 0 mm 3 mps 762 mmHg 70%
01:00 +3°C° 0 mm 3 mps 762 mmHg 71%
02:00 +3°C° 0 mm 2 mps 762 mmHg 72%
03:00 +3°C° 0 mm 2 mps 762 mmHg 74%
04:00 +3°C° 0 mm 2 mps 762 mmHg 74%
05:00 +3°C° 0 mm 2 mps 762 mmHg 74%
06:00 +3°C° 0 mm 2 mps 762 mmHg 74%
07:00 +4°C° 0 mm 3 mps 762 mmHg 68%
08:00 +6°C° 0 mm 4 mps 761 mmHg 61%
09:00 +7°C° 0 mm 4 mps 761 mmHg 55%
10:00 +8°C° 0 mm 4 mps 761 mmHg 51%
11:00 +10°C° 0 mm 4 mps 761 mmHg 48%
12:00 +10°C° 0 mm 5 mps 761 mmHg 44%
13:00 +10°C° 0 mm 5 mps 761 mmHg 44%
14:00 +12°C° 0 mm 5 mps 761 mmHg 43%
15:00 +12°C° 0 mm 5 mps 761 mmHg 43%
16:00 +10°C° 0 mm 6 mps 761 mmHg 48%
17:00 +9°C° 0 mm 6 mps 761 mmHg 53%
18:00 +8°C° 0 mm 6 mps 761 mmHg 59%
19:00 +7°C° 0 mm 6 mps 762 mmHg 60%
20:00 +5°C° 0 mm 6 mps 762 mmHg 62%
21:00 +5°C° 0 mm 5 mps 763 mmHg 64%
22:00 +3°C° 0 mm 5 mps 763 mmHg 61%
23:00 +2°C° 0 mm 5 mps 763 mmHg 57%

19 April, Monday

Time Temperature Precipitation Wind Pressure Humidity
00:00 +1°C° 0 mm 6 mps 764 mmHg 53%
01:00 0°C° 0 mm 5 mps 764 mmHg 55%
02:00 -1°C° 0 mm 5 mps 764 mmHg 56%
03:00 -1°C° 0 mm 5 mps 765 mmHg 57%
04:00 -2°C° 0 mm 6 mps 765 mmHg 60%
05:00 -2°C° 0 mm 6 mps 765 mmHg 63%
06:00 -2°C° 0 mm 6 mps 765 mmHg 66%
07:00 -1°C° 0 mm 6 mps 765 mmHg 59%
08:00 0°C° 0 mm 7 mps 765 mmHg 53%
09:00 +1°C° 0 mm 8 mps 766 mmHg 46%
10:00 +2°C° 0 mm 8 mps 766 mmHg 43%
11:00 +2°C° 0 mm 8 mps 766 mmHg 39%
12:00 +4°C° 0 mm 8 mps 766 mmHg 36%
13:00 +4°C° 0 mm 7 mps 766 mmHg 35%
14:00 +4°C° 0 mm 7 mps 765 mmHg 35%
15:00 +4°C° 0 mm 7 mps 765 mmHg 34%
16:00 +4°C° 0 mm 7 mps 765 mmHg 36%
17:00 +4°C° 0 mm 6 mps 765 mmHg 39%
18:00 +3°C° 0 mm 6 mps 765 mmHg 41%
19:00 +2°C° 0 mm 6 mps 765 mmHg 44%
20:00 +2°C° 0 mm 6 mps 765 mmHg 47%
21:00 +1°C° 0 mm 5 mps 765 mmHg 49%
22:00 0°C° 0 mm 5 mps 765 mmHg 51%
23:00 0°C° 0 mm 5 mps 765 mmHg 52%

20 April, Tuesday

Time Temperature Precipitation Wind Pressure Humidity
00:00 -1°C° 0 mm 5 mps 765 mmHg 54%
01:00 -1°C° 0 mm 5 mps 766 mmHg 55%
02:00 -2°C° 0 mm 5 mps 766 mmHg 56%
03:00 -2°C° 0 mm 5 mps 766 mmHg 57%
04:00 -2°C° 0 mm 5 mps 766 mmHg 57%
05:00 -2°C° 0 mm 5 mps 766 mmHg 57%
06:00 -2°C° 0 mm 5 mps 766 mmHg 57%
07:00 0°C° 0 mm 5 mps 766 mmHg 52%
08:00 +1°C° 0 mm 6 mps 766 mmHg 47%
09:00 +3°C° 0 mm 6 mps 766 mmHg 42%
10:00 +4°C° 0 mm 6 mps 766 mmHg 39%
11:00 +5°C° 0 mm 7 mps 766 mmHg 36%
12:00 +5°C° 0 mm 7 mps 766 mmHg 33%
13:00 +6°C° 0 mm 7 mps 765 mmHg 32%
14:00 +6°C° 0 mm 7 mps 765 mmHg 31%
15:00 +6°C° 0 mm 7 mps 765 mmHg 30%
16:00 +6°C° 0 mm 7 mps 765 mmHg 34%
17:00 +5°C° 0 mm 6 mps 765 mmHg 37%
18:00 +5°C° 0 mm 6 mps 765 mmHg 40%
19:00 +4°C° 0 mm 6 mps 765 mmHg 43%
20:00 +3°C° 0 mm 6 mps 765 mmHg 46%
21:00 +2°C° 0 mm 6 mps 765 mmHg 49%
22:00 +2°C° 0 mm 5 mps 764 mmHg 50%
23:00 +1°C° 0 mm 5 mps 764 mmHg 51%
Show more

We Need Your Consent

Meteoprog and our Service Providers may store and access personal data such as cookies, device identifiers or other similar technologies on your device and process such data to personalise content and ads, as well as provide social media features and to analyse the traffic.

  • Store and/or access information on your device

    Cookies, device identifiers or other information can be stored or accessed on your device for the purposes indicated above.

  • Personalised ads and content, ad and content measurement, audience insights, and products development

    Ads and content can be personalised based on a profile. More data can be added to better personalise ads and content. Ad and content performance can be measured. Insights about the audience who saw the ads and content can be derived. Such data can be used to develop or improve user’s experience, systems and software.

By clicking ‘I Agree’ you will allow the use of indicated cookies, device identifiers, web beacons or other similar technologies. Your settings can be changed in the browser on your device.

For certain purposes, legitimate interests may be relied on, rather than consent. You can read more about this in our Privacy and Cookie Policy.